Météo par heure à Almalyk

Ce jour, 15 Mai, Samedi

Heure Température Précipitation Vent Pression Humidité
00:00 +14°C° 0.2 mm 3 m/s 685 mmHg 63%
01:00 +13°C° 0.2 mm 3 m/s 685 mmHg 65%
02:00 +12°C° 0.2 mm 3 m/s 685 mmHg 67%
03:00 +12°C° 0 mm 3 m/s 685 mmHg 66%
04:00 +12°C° 0 mm 3 m/s 685 mmHg 65%
05:00 +11°C° 0 mm 4 m/s 685 mmHg 65%
06:00 +14°C° 0 mm 3 m/s 685 mmHg 58%
07:00 +18°C° 0 mm 2 m/s 686 mmHg 50%
08:00 +21°C° 0 mm 1 m/s 686 mmHg 43%
09:00 +21°C° 0 mm 2 m/s 686 mmHg 40%
10:00 +24°C° 0 mm 2 m/s 686 mmHg 36%
11:00 +25°C° 0 mm 2 m/s 686 mmHg 34%
12:00 +26°C° 0 mm 2 m/s 686 mmHg 33%
13:00 +26°C° 0 mm 2 m/s 686 mmHg 32%
14:00 +27°C° 0 mm 2 m/s 686 mmHg 30%
15:00 +27°C° 0 mm 2 m/s 686 mmHg 30%
16:00 +27°C° 0 mm 2 m/s 685 mmHg 29%
17:00 +27°C° 0 mm 2 m/s 685 mmHg 29%
18:00 +24°C° 0 mm 2 m/s 685 mmHg 34%
19:00 +21°C° 0 mm 2 m/s 685 mmHg 39%
20:00 +18°C° 0 mm 3 m/s 685 mmHg 44%
21:00 +17°C° 0 mm 3 m/s 685 mmHg 44%
22:00 +17°C° 0 mm 3 m/s 685 mmHg 44%
23:00 +16°C° 0 mm 3 m/s 685 mmHg 44%

Demain, 16 Mai, Dimanche

Heure Température Précipitation Vent Pression Humidité
00:00 +16°C° 0 mm 3 m/s 685 mmHg 43%
01:00 +14°C° 0 mm 3 m/s 684 mmHg 43%
02:00 +14°C° 0 mm 3 m/s 684 mmHg 42%
03:00 +14°C° 0.2 mm 3 m/s 684 mmHg 48%
04:00 +13°C° 0.2 mm 3 m/s 684 mmHg 54%
05:00 +12°C° 0.2 mm 3 m/s 685 mmHg 60%
06:00 +16°C° 0.1 mm 3 m/s 685 mmHg 55%
07:00 +19°C° 0.1 mm 2 m/s 686 mmHg 50%
08:00 +21°C° 0.1 mm 2 m/s 687 mmHg 45%
09:00 +24°C° 0 mm 2 m/s 687 mmHg 40%
10:00 +25°C° 0 mm 2 m/s 687 mmHg 35%
11:00 +27°C° 0 mm 2 m/s 687 mmHg 30%
12:00 +27°C° 0 mm 2 m/s 687 mmHg 28%
13:00 +28°C° 0 mm 2 m/s 687 mmHg 26%
14:00 +29°C° 0 mm 2 m/s 687 mmHg 24%
15:00 +28°C° 0 mm 2 m/s 687 mmHg 25%
16:00 +28°C° 0 mm 2 m/s 686 mmHg 26%
17:00 +28°C° 0 mm 1 m/s 686 mmHg 27%
18:00 +25°C° 0 mm 2 m/s 686 mmHg 32%
19:00 +22°C° 0 mm 3 m/s 686 mmHg 37%
20:00 +20°C° 0 mm 3 m/s 686 mmHg 42%
21:00 +19°C° 0 mm 3 m/s 686 mmHg 41%
22:00 +18°C° 0 mm 3 m/s 686 mmHg 40%
23:00 +17°C° 0 mm 3 m/s 686 mmHg 40%

Après-demain, 17 Mai, Lundi

Heure Température Précipitation Vent Pression Humidité
00:00 +17°C° 0 mm 3 m/s 686 mmHg 39%
01:00 +17°C° 0 mm 3 m/s 686 mmHg 39%
02:00 +16°C° 0 mm 3 m/s 686 mmHg 38%
03:00 +16°C° 0 mm 3 m/s 686 mmHg 38%
04:00 +16°C° 0 mm 3 m/s 686 mmHg 38%
05:00 +16°C° 0 mm 3 m/s 686 mmHg 38%
06:00 +18°C° 0 mm 3 m/s 687 mmHg 38%
07:00 +21°C° 0 mm 2 m/s 687 mmHg 37%
08:00 +24°C° 0 mm 2 m/s 688 mmHg 37%
09:00 +26°C° 0 mm 1 m/s 688 mmHg 33%
10:00 +27°C° 0 mm 1 m/s 688 mmHg 29%
11:00 +29°C° 0 mm 1 m/s 688 mmHg 25%
12:00 +29°C° 0 mm 2 m/s 688 mmHg 24%
13:00 +30°C° 0 mm 2 m/s 688 mmHg 22%
14:00 +30°C° 0 mm 2 m/s 688 mmHg 21%
15:00 +30°C° 0 mm 2 m/s 687 mmHg 23%
16:00 +30°C° 0 mm 2 m/s 687 mmHg 25%
17:00 +29°C° 0 mm 2 m/s 687 mmHg 27%
18:00 +27°C° 0 mm 2 m/s 687 mmHg 31%
19:00 +24°C° 0 mm 2 m/s 687 mmHg 36%
20:00 +20°C° 0 mm 3 m/s 687 mmHg 41%
21:00 +20°C° 0 mm 3 m/s 687 mmHg 42%
22:00 +19°C° 0 mm 3 m/s 686 mmHg 42%
23:00 +18°C° 0 mm 3 m/s 686 mmHg 43%

18 Mai, Mardi

Heure Température Précipitation Vent Pression Humidité
00:00 +18°C° 0 mm 3 m/s 686 mmHg 42%
01:00 +18°C° 0 mm 3 m/s 686 mmHg 40%
02:00 +17°C° 0 mm 3 m/s 685 mmHg 39%
03:00 +17°C° 0 mm 3 m/s 685 mmHg 39%
04:00 +17°C° 0 mm 3 m/s 685 mmHg 39%
05:00 +16°C° 0 mm 3 m/s 685 mmHg 38%
06:00 +19°C° 0 mm 3 m/s 686 mmHg 38%
07:00 +23°C° 0 mm 2 m/s 686 mmHg 37%
08:00 +25°C° 0 mm 2 m/s 686 mmHg 36%
09:00 +27°C° 0 mm 2 m/s 686 mmHg 31%
10:00 +28°C° 0 mm 2 m/s 686 mmHg 27%
11:00 +30°C° 0 mm 2 m/s 686 mmHg 23%
12:00 +31°C° 0 mm 2 m/s 686 mmHg 22%
13:00 +31°C° 0 mm 2 m/s 686 mmHg 21%
14:00 +32°C° 0 mm 2 m/s 686 mmHg 20%
15:00 +31°C° 0 mm 2 m/s 685 mmHg 22%
16:00 +31°C° 0 mm 2 m/s 685 mmHg 24%
17:00 +31°C° 0 mm 1 m/s 685 mmHg 25%
18:00 +28°C° 0 mm 2 m/s 685 mmHg 30%
19:00 +25°C° 0 mm 2 m/s 684 mmHg 34%
20:00 +21°C° 0 mm 3 m/s 684 mmHg 39%
21:00 +21°C° 0 mm 3 m/s 684 mmHg 39%
22:00 +20°C° 0 mm 3 m/s 684 mmHg 40%
23:00 +20°C° 0 mm 3 m/s 684 mmHg 40%

19 Mai, Mercredi

Heure Température Précipitation Vent Pression Humidité
00:00 +19°C° 0 mm 3 m/s 684 mmHg 40%
01:00 +19°C° 0 mm 3 m/s 684 mmHg 40%
02:00 +18°C° 0 mm 3 m/s 684 mmHg 40%
03:00 +18°C° 0 mm 3 m/s 684 mmHg 40%
04:00 +18°C° 0 mm 3 m/s 684 mmHg 40%
05:00 +18°C° 0 mm 3 m/s 684 mmHg 40%
06:00 +20°C° 0 mm 2 m/s 684 mmHg 39%
07:00 +23°C° 0 mm 2 m/s 685 mmHg 38%
08:00 +25°C° 0 mm 1 m/s 685 mmHg 37%
09:00 +27°C° 0 mm 1 m/s 685 mmHg 34%
10:00 +28°C° 0 mm 1 m/s 685 mmHg 32%
11:00 +30°C° 0 mm 1 m/s 685 mmHg 29%
12:00 +30°C° 0 mm 2 m/s 685 mmHg 26%
13:00 +31°C° 0 mm 2 m/s 685 mmHg 24%
14:00 +31°C° 0 mm 3 m/s 684 mmHg 22%
15:00 +31°C° 0 mm 3 m/s 684 mmHg 25%
16:00 +30°C° 0 mm 3 m/s 684 mmHg 28%
17:00 +29°C° 0 mm 3 m/s 684 mmHg 32%
18:00 +27°C° 0 mm 3 m/s 684 mmHg 36%
19:00 +25°C° 0 mm 3 m/s 684 mmHg 41%
20:00 +21°C° 0 mm 3 m/s 684 mmHg 46%
21:00 +21°C° 0 mm 3 m/s 684 mmHg 45%
22:00 +21°C° 0 mm 3 m/s 684 mmHg 44%
23:00 +20°C° 0 mm 3 m/s 684 mmHg 42%

20 Mai, Jeudi

Heure Température Précipitation Vent Pression Humidité
00:00 +20°C° 0 mm 3 m/s 684 mmHg 43%
01:00 +19°C° 0 mm 3 m/s 684 mmHg 43%
02:00 +19°C° 0 mm 3 m/s 684 mmHg 44%
03:00 +18°C° 0 mm 3 m/s 684 mmHg 45%
04:00 +17°C° 0 mm 3 m/s 684 mmHg 46%
05:00 +17°C° 0 mm 3 m/s 684 mmHg 47%
06:00 +19°C° 0 mm 2 m/s 684 mmHg 43%
07:00 +23°C° 0 mm 2 m/s 685 mmHg 39%
08:00 +26°C° 0 mm 1 m/s 685 mmHg 36%
09:00 +27°C° 0 mm 2 m/s 685 mmHg 31%
10:00 +29°C° 0 mm 2 m/s 685 mmHg 27%
11:00 +30°C° 0 mm 3 m/s 685 mmHg 23%
12:00 +31°C° 0 mm 3 m/s 685 mmHg 21%
13:00 +32°C° 0 mm 4 m/s 685 mmHg 19%
14:00 +32°C° 0 mm 4 m/s 685 mmHg 18%
15:00 +32°C° 0 mm 4 m/s 684 mmHg 21%
16:00 +31°C° 0 mm 3 m/s 684 mmHg 24%
17:00 +30°C° 0 mm 3 m/s 684 mmHg 27%
18:00 +27°C° 0 mm 3 m/s 684 mmHg 32%
19:00 +25°C° 0 mm 3 m/s 684 mmHg 37%
20:00 +21°C° 0 mm 3 m/s 683 mmHg 42%
21:00 +20°C° 0 mm 3 m/s 683 mmHg 41%
22:00 +19°C° 0 mm 3 m/s 683 mmHg 40%
23:00 +19°C° 0 mm 3 m/s 684 mmHg 39%
Voir plus

Nous avons besoin de votre consentement

Meteoprog et ses fournisseurs de services peuvent stocker et accéder à des données personnelles telles que des cookies, des identifiants d'appareils ou d'autres technologies similaires sur votre appareil et traiter ces données pour personnaliser le contenu et les publicités, ainsi que pour fournir des fonctionnalités de médias sociaux et analyser le trafic.

  • Stocker et/ou accéder à des informations sur votre appareil

    Des cookies, des identifiants d'appareils ou d'autres informations peuvent être stockés ou accessibles sur votre appareil aux fins indiquées ci-dessus.

  • Annonces et contenus personnalisés, mesure des annonces et des contenus, connaissance de l'audience et développement de produits

    Les annonces et le contenu peuvent être personnalisés en fonction d'un profil. D'autres données peuvent être ajoutées pour mieux personnaliser les annonces et le contenu. Les performances des publicités et du contenu peuvent être mesurées. Il est possible d'obtenir des informations sur le public qui a vu les publicités et le contenu. Ces données peuvent être utilisées pour développer ou améliorer l'expérience de l'utilisateur, les systèmes et les logiciels.

En cliquant sur "J'accepte", vous autorisez l'utilisation de cookies, des identifiants d'appareils, des balises web ou d'autres technologies similaires. Vos paramètres peuvent être modifiés dans le navigateur de votre appareil.

Dans certains cas, des intérêts légitimes peuvent être invoqués plutôt qu'un consentement. Vous pouvez en savoir plus à ce sujet dans notre Politique de confidentialité et de cookies.